User: anonymous   Login
Location: Antin
(43.3330°N, 0.2804°E)
Time: 18:07:25
(UTC+00:00)
Language:

Cosmos 1544 Rocket - Orbit

View from above orbital plane
View from above orbital plane
View from above satellite
View from above satellite

Ground track
Ground track

The orbit data is extracted from the following two-line orbital elements,

1 14820U 84027B   22023.89565671  .00000145  00000-0  14641-4 0  9992
2 14820  82.5411 214.2437 0017190 271.5323  88.3923 14.83746897 24200
Epoch (UTC): 23 January 2022 21:29:44
Eccentricity: 0.0017190
inclination: 82.5411°
perigee height: 605 km
apogee height: 629 km
right ascension of ascending node: 214.2437°
argument of perigee: 271.5323°
revolutions per day: 14.83746897
mean anomaly at epoch: 88.3923°
orbit number at epoch: 2420

The dashed part of the orbit path shows where the satellite is in the earth's shadow,  

DLR